Time,TemperatureF,DewpointF,PressureIn,WindDirection,WindDirectionDegrees,WindSpeedMPH,WindSpeedGustMPH,Humidity,HourlyPrecipIn,Conditions,Clouds,dailyrainin,SoftwareType,DateUTC
2013-08-11 00:02:00,66.8,63.0,30.16,NE,55,0.0,0.6,87,0.00,,,0.00,TxWx,2013-08-11 05:02:00,
2013-08-11 00:07:00,66.8,63.0,30.16,NE,55,0.6,0.6,87,0.00,,,0.00,TxWx,2013-08-11 05:07:00,
2013-08-11 00:12:00,66.7,63.0,30.16,ENE,77,0.0,0.6,87,0.00,,,0.00,TxWx,2013-08-11 05:12:00,
2013-08-11 00:18:00,66.6,63.0,30.16,NE,55,0.0,0.6,87,0.00,,,0.00,TxWx,2013-08-11 05:18:00,
2013-08-11 00:23:00,66.5,63.0,30.16,NE,55,0.0,0.6,87,0.00,,,0.00,TxWx,2013-08-11 05:23:00,
2013-08-11 00:30:00,66.4,62.0,30.16,ENE,77,0.0,0.0,87,0.00,,,0.00,TxWx,2013-08-11 05:30:00,
2013-08-11 00:35:00,66.4,62.0,30.16,NE,55,0.0,0.0,87,0.00,,,0.00,TxWx,2013-08-11 05:35:00,
2013-08-11 00:44:00,66.3,62.0,30.16,NNE,32,0.0,0.6,87,0.00,,,0.00,TxWx,2013-08-11 05:44:00,
2013-08-11 00:50:00,66.2,62.0,30.16,NE,55,0.0,0.0,87,0.00,,,0.00,TxWx,2013-08-11 05:50:00,
2013-08-11 00:55:00,66.1,62.0,30.16,NE,55,0.0,0.0,87,0.00,,,0.00,TxWx,2013-08-11 05:55:00,
2013-08-11 01:00:00,66.0,62.0,30.16,NE,55,0.0,0.6,87,0.00,,,0.00,TxWx,2013-08-11 06:00:00,
2013-08-11 01:06:00,65.9,62.0,30.16,NE,55,0.0,0.6,87,0.00,,,0.00,TxWx,2013-08-11 06:06:00,
2013-08-11 01:11:00,65.8,62.0,30.16,NE,55,0.0,0.6,88,0.00,,,0.00,TxWx,2013-08-11 06:11:00,
2013-08-11 01:16:00,65.8,62.0,30.16,ENE,77,0.6,0.6,88,0.00,,,0.00,TxWx,2013-08-11 06:16:00,
2013-08-11 01:23:00,65.6,62.0,30.16,NE,55,0.0,0.6,88,0.00,,,0.00,TxWx,2013-08-11 06:23:00,
2013-08-11 01:28:00,65.5,62.0,30.16,ENE,77,0.0,0.6,88,0.00,,,0.00,TxWx,2013-08-11 06:28:00,
2013-08-11 01:34:00,65.4,61.0,30.17,NNW,347,0.0,0.0,88,0.00,,,0.00,TxWx,2013-08-11 06:34:00,
2013-08-11 01:40:00,65.3,61.0,30.17,ENE,77,0.0,0.6,88,0.00,,,0.00,TxWx,2013-08-11 06:40:00,
2013-08-11 01:46:00,65.1,61.0,30.16,North,10,0.0,0.6,88,0.00,,,0.00,TxWx,2013-08-11 06:46:00,
2013-08-11 01:52:00,65.0,62.0,30.16,ENE,77,0.0,0.6,89,0.00,,,0.00,TxWx,2013-08-11 06:52:00,
2013-08-11 01:58:00,64.8,62.0,30.16,NE,55,0.0,0.6,89,0.00,,,0.00,TxWx,2013-08-11 06:58:00,
2013-08-11 02:04:00,64.7,62.0,30.16,NE,55,0.0,0.0,89,0.00,,,0.00,TxWx,2013-08-11 07:04:00,
2013-08-11 02:09:00,64.6,62.0,30.16,NE,55,0.0,0.6,89,0.00,,,0.00,TxWx,2013-08-11 07:09:00,
2013-08-11 02:15:00,64.5,62.0,30.16,NE,55,0.0,0.0,89,0.00,,,0.00,TxWx,2013-08-11 07:15:00,
2013-08-11 02:22:00,64.4,61.0,30.17,NE,55,0.0,0.0,90,0.00,,,0.00,TxWx,2013-08-11 07:22:00,
2013-08-11 02:27:00,64.3,61.0,30.16,NE,55,0.0,0.0,90,0.00,,,0.00,TxWx,2013-08-11 07:27:00,
2013-08-11 02:32:00,64.1,61.0,30.17,NE,55,0.0,0.6,90,0.00,,,0.00,TxWx,2013-08-11 07:32:00,
2013-08-11 02:38:00,64.1,61.0,30.16,NE,55,0.0,0.6,90,0.00,,,0.00,TxWx,2013-08-11 07:38:00,
2013-08-11 02:43:00,64.0,61.0,30.16,NE,55,0.0,0.6,90,0.00,,,0.00,TxWx,2013-08-11 07:43:00,
2013-08-11 02:48:00,63.9,61.0,30.16,NE,55,0.0,0.0,90,0.00,,,0.00,TxWx,2013-08-11 07:48:00,
2013-08-11 02:53:00,63.8,61.0,30.16,NE,55,0.0,0.0,91,0.00,,,0.00,TxWx,2013-08-11 07:53:00,
2013-08-11 02:59:00,63.7,61.0,30.16,NE,55,0.0,0.6,91,0.00,,,0.00,TxWx,2013-08-11 07:59:00,
2013-08-11 03:06:00,63.5,61.0,30.16,NE,55,0.0,0.0,91,0.00,,,0.00,TxWx,2013-08-11 08:06:00,
2013-08-11 03:12:00,63.4,60.0,30.16,NE,55,0.0,0.0,91,0.00,,,0.00,TxWx,2013-08-11 08:12:00,
2013-08-11 03:18:00,63.4,60.0,30.16,NE,55,0.0,0.6,92,0.00,,,0.00,TxWx,2013-08-11 08:18:00,
2013-08-11 03:25:00,63.3,60.0,30.16,NE,55,0.0,0.6,92,0.00,,,0.00,TxWx,2013-08-11 08:25:00,
2013-08-11 03:30:00,63.2,60.0,30.16,NE,55,0.6,0.6,92,0.00,,,0.00,TxWx,2013-08-11 08:30:00,
2013-08-11 03:35:00,63.1,60.0,30.16,NE,55,0.0,0.6,92,0.00,,,0.00,TxWx,2013-08-11 08:35:00,
2013-08-11 03:41:00,63.1,60.0,30.16,NE,55,0.0,0.6,92,0.00,,,0.00,TxWx,2013-08-11 08:41:00,
2013-08-11 03:46:00,63.0,61.0,30.16,NE,55,0.0,0.0,92,0.00,,,0.00,TxWx,2013-08-11 08:46:00,
2013-08-11 03:53:00,63.0,61.0,30.16,NE,55,0.0,0.0,92,0.00,,,0.00,TxWx,2013-08-11 08:53:00,
2013-08-11 03:58:00,63.0,61.0,30.15,NE,55,0.0,0.6,92,0.00,,,0.00,TxWx,2013-08-11 08:58:00,
2013-08-11 04:03:00,62.9,61.0,30.15,NE,55,0.0,0.6,92,0.00,,,0.00,TxWx,2013-08-11 09:03:00,
2013-08-11 04:08:00,62.8,61.0,30.15,NNE,32,0.0,0.0,92,0.00,,,0.00,TxWx,2013-08-11 09:08:00,
2013-08-11 04:14:00,62.7,61.0,30.15,NNE,32,0.0,0.0,92,0.00,,,0.00,TxWx,2013-08-11 09:14:00,
2013-08-11 04:20:00,62.6,61.0,30.15,NE,55,0.0,0.0,92,0.00,,,0.00,TxWx,2013-08-11 09:20:00,
2013-08-11 04:25:00,62.5,61.0,30.15,NE,55,0.0,0.0,92,0.00,,,0.00,TxWx,2013-08-11 09:25:00,
2013-08-11 04:30:00,62.4,60.0,30.14,NNE,32,0.0,0.0,92,0.00,,,0.00,TxWx,2013-08-11 09:30:00,
2013-08-11 04:35:00,62.4,60.0,30.14,NNE,32,0.0,0.0,93,0.00,,,0.00,TxWx,2013-08-11 09:35:00,
2013-08-11 04:40:00,62.3,60.0,30.14,NNE,32,0.0,0.0,93,0.00,,,0.00,TxWx,2013-08-11 09:40:00,
2013-08-11 04:46:00,62.2,60.0,30.14,NNE,32,0.0,0.0,93,0.00,,,0.00,TxWx,2013-08-11 09:46:00,
2013-08-11 04:52:00,62.1,60.0,30.14,NE,55,0.0,0.6,93,0.00,,,0.00,TxWx,2013-08-11 09:52:00,
2013-08-11 04:57:00,62.0,60.0,30.14,NE,55,0.0,0.0,93,0.00,,,0.00,TxWx,2013-08-11 09:57:00,
2013-08-11 05:03:00,61.9,60.0,30.14,North,10,0.0,0.0,93,0.00,,,0.00,TxWx,2013-08-11 10:03:00,
2013-08-11 05:09:00,61.8,60.0,30.14,North,10,0.0,0.0,94,0.00,,,0.00,TxWx,2013-08-11 10:09:00,
2013-08-11 05:15:00,61.6,60.0,30.14,NNE,32,0.0,0.0,94,0.00,,,0.00,TxWx,2013-08-11 10:15:00,
2013-08-11 05:20:00,61.6,60.0,30.14,NNE,32,0.0,0.0,94,0.00,,,0.00,TxWx,2013-08-11 10:20:00,
2013-08-11 05:25:00,61.4,59.0,30.14,NNE,32,0.0,0.6,94,0.00,,,0.00,TxWx,2013-08-11 10:25:00,
2013-08-11 05:31:00,61.3,59.0,30.14,NNE,32,0.0,0.6,94,0.00,,,0.00,TxWx,2013-08-11 10:31:00,
2013-08-11 05:36:00,61.2,59.0,30.14,NE,55,0.0,0.6,94,0.00,,,0.00,TxWx,2013-08-11 10:36:00,
2013-08-11 05:42:00,61.1,59.0,30.14,NE,55,0.0,0.0,95,0.00,,,0.00,TxWx,2013-08-11 10:42:00,
2013-08-11 05:47:00,61.0,59.0,30.14,NNE,32,0.0,0.0,95,0.00,,,0.00,TxWx,2013-08-11 10:47:00,
2013-08-11 05:53:00,61.0,60.0,30.14,NNE,32,0.0,0.0,95,0.00,,,0.00,TxWx,2013-08-11 10:53:00,
2013-08-11 05:59:00,60.9,60.0,30.15,NNE,32,0.0,0.0,95,0.00,,,0.00,TxWx,2013-08-11 10:59:00,
2013-08-11 06:04:00,60.9,60.0,30.15,NE,55,0.0,0.0,95,0.00,,,0.00,TxWx,2013-08-11 11:04:00,
2013-08-11 06:09:00,60.9,60.0,30.15,NNE,32,0.0,0.0,95,0.00,,,0.00,TxWx,2013-08-11 11:09:00,
2013-08-11 06:15:00,60.8,60.0,30.15,NNE,32,0.0,0.0,96,0.00,,,0.00,TxWx,2013-08-11 11:15:00,
2013-08-11 06:21:00,60.7,60.0,30.15,NNE,32,0.0,0.0,96,0.00,,,0.00,TxWx,2013-08-11 11:21:00,
2013-08-11 06:27:00,60.7,60.0,30.15,NNE,32,0.0,0.0,96,0.00,,,0.00,TxWx,2013-08-11 11:27:00,
2013-08-11 06:33:00,60.6,60.0,30.15,NE,55,0.0,0.6,96,0.00,,,0.00,TxWx,2013-08-11 11:33:00,
2013-08-11 06:40:00,60.5,60.0,30.15,NE,55,0.0,0.6,96,0.00,,,0.00,TxWx,2013-08-11 11:40:00,
2013-08-11 06:45:00,60.5,59.0,30.15,NE,55,0.0,0.0,96,0.00,,,0.00,TxWx,2013-08-11 11:45:00,
2013-08-11 06:50:00,60.4,59.0,30.15,North,10,0.0,0.6,96,0.00,,,0.00,TxWx,2013-08-11 11:50:00,
2013-08-11 06:56:00,60.4,59.0,30.15,NE,55,0.0,0.6,97,0.00,,,0.00,TxWx,2013-08-11 11:56:00,
2013-08-11 07:01:00,60.3,59.0,30.15,North,10,0.0,0.0,97,0.00,,,0.00,TxWx,2013-08-11 12:01:00,
2013-08-11 07:07:00,60.3,59.0,30.15,North,10,0.0,0.6,97,0.00,,,0.00,TxWx,2013-08-11 12:07:00,
2013-08-11 07:12:00,60.4,59.0,30.15,NNW,347,0.6,0.6,97,0.00,,,0.00,TxWx,2013-08-11 12:12:00,
2013-08-11 07:18:00,60.5,60.0,30.15,NNW,347,0.0,0.6,97,0.00,,,0.00,TxWx,2013-08-11 12:18:00,
2013-08-11 07:23:00,60.6,60.0,30.15,NE,55,0.6,0.6,98,0.00,,,0.00,TxWx,2013-08-11 12:23:00,
2013-08-11 07:28:00,60.7,60.0,30.15,North,10,0.0,1.2,98,0.00,,,0.00,TxWx,2013-08-11 12:28:00,
2013-08-11 07:33:00,60.9,60.0,30.15,ENE,77,0.6,1.9,98,0.00,,,0.00,TxWx,2013-08-11 12:33:00,
2013-08-11 07:38:00,61.1,60.0,30.15,NW,325,0.0,0.6,98,0.00,,,0.00,TxWx,2013-08-11 12:38:00,
2013-08-11 07:44:00,61.3,60.0,30.15,ESE,122,0.6,1.9,98,0.00,,,0.00,TxWx,2013-08-11 12:44:00,
2013-08-11 07:49:00,61.5,60.0,30.15,NNE,32,0.6,0.6,98,0.00,,,0.00,TxWx,2013-08-11 12:49:00,
2013-08-11 07:56:00,62.3,61.0,30.15,NNW,347,0.0,1.2,98,0.00,,,0.00,TxWx,2013-08-11 12:56:00,
2013-08-11 08:02:00,62.8,62.0,30.15,NE,55,1.2,1.9,98,0.00,,,0.00,TxWx,2013-08-11 13:02:00,
2013-08-11 08:07:00,63.5,62.0,30.15,WSW,257,1.2,3.7,98,0.00,,,0.00,TxWx,2013-08-11 13:07:00,
2013-08-11 08:13:00,64.0,63.0,30.15,WNW,302,1.2,1.9,97,0.00,,,0.00,TxWx,2013-08-11 13:13:00,
2013-08-11 08:18:00,64.4,63.0,30.15,NE,55,0.6,1.9,96,0.00,,,0.00,TxWx,2013-08-11 13:18:00,
2013-08-11 08:26:00,64.9,63.0,30.15,NW,325,0.6,1.2,95,0.00,,,0.00,TxWx,2013-08-11 13:26:00,
2013-08-11 08:31:00,65.3,63.0,30.14,West,280,0.6,3.7,94,0.00,,,0.00,TxWx,2013-08-11 13:31:00,
2013-08-11 08:36:00,65.7,64.0,30.14,SW,235,0.6,2.5,92,0.00,,,0.00,TxWx,2013-08-11 13:36:00,
2013-08-11 08:41:00,66.2,63.0,30.14,WSW,257,0.6,1.9,90,0.00,,,0.00,TxWx,2013-08-11 13:41:00,
2013-08-11 08:47:00,66.8,64.0,30.15,WSW,257,0.6,3.1,89,0.00,,,0.00,TxWx,2013-08-11 13:47:00,
2013-08-11 08:52:00,67.2,63.0,30.15,East,100,0.6,1.2,89,0.00,,,0.00,TxWx,2013-08-11 13:52:00,
2013-08-11 08:57:00,67.5,64.0,30.15,South,190,3.7,5.6,88,0.00,,,0.00,TxWx,2013-08-11 13:57:00,
2013-08-11 09:03:00,67.8,64.0,30.15,NNE,32,0.6,0.6,87,0.00,,,0.00,TxWx,2013-08-11 14:03:00,
2013-08-11 09:08:00,68.1,63.0,30.15,East,100,0.6,1.9,86,0.00,,,0.00,TxWx,2013-08-11 14:08:00,
2013-08-11 09:13:00,68.4,63.0,30.15,East,100,1.2,3.1,85,0.00,,,0.00,TxWx,2013-08-11 14:13:00,
2013-08-11 09:18:00,68.9,64.0,30.15,ESE,122,1.2,2.5,84,0.00,,,0.00,TxWx,2013-08-11 14:18:00,
2013-08-11 09:23:00,69.2,64.0,30.15,SSW,212,0.0,2.5,85,0.00,,,0.00,TxWx,2013-08-11 14:23:00,
2013-08-11 09:29:00,69.6,64.0,30.15,West,280,0.6,3.7,82,0.00,,,0.00,TxWx,2013-08-11 14:29:00,
2013-08-11 09:35:00,70.0,64.0,30.15,NE,55,0.6,3.1,82,0.00,,,0.00,TxWx,2013-08-11 14:35:00,
2013-08-11 09:40:00,70.6,64.0,30.14,SW,235,1.9,3.7,79,0.00,,,0.00,TxWx,2013-08-11 14:40:00,
2013-08-11 09:45:00,70.9,64.0,30.14,North,10,0.6,4.3,80,0.00,,,0.00,TxWx,2013-08-11 14:45:00,
2013-08-11 09:51:00,71.3,64.0,30.14,SSW,212,1.9,2.5,79,0.00,,,0.00,TxWx,2013-08-11 14:51:00,
2013-08-11 09:57:00,71.6,65.0,30.14,NNW,347,1.2,1.9,79,0.00,,,0.00,TxWx,2013-08-11 14:57:00,
2013-08-11 10:02:00,71.9,64.0,30.14,SSE,167,0.6,3.7,77,0.00,,,0.00,TxWx,2013-08-11 15:02:00,
2013-08-11 10:08:00,72.4,64.0,30.14,ENE,77,2.5,3.1,77,0.00,,,0.00,TxWx,2013-08-11 15:08:00,
2013-08-11 10:13:00,72.7,66.0,30.14,SSW,212,1.2,1.9,79,0.00,,,0.00,TxWx,2013-08-11 15:13:00,
2013-08-11 10:19:00,73.0,65.0,30.14,East,100,0.6,2.5,76,0.00,,,0.00,TxWx,2013-08-11 15:19:00,
2013-08-11 10:24:00,73.3,65.0,30.14,ENE,77,2.5,3.7,77,0.00,,,0.00,TxWx,2013-08-11 15:24:00,
2013-08-11 10:29:00,73.7,65.0,30.14,SE,145,3.1,3.1,73,0.00,,,0.00,TxWx,2013-08-11 15:29:00,
2013-08-11 10:34:00,74.1,65.0,30.14,South,190,1.2,2.5,74,0.00,,,0.00,TxWx,2013-08-11 15:34:00,
2013-08-11 10:39:00,74.5,65.0,30.14,South,190,2.5,3.1,73,0.00,,,0.00,TxWx,2013-08-11 15:39:00,
2013-08-11 10:45:00,74.8,66.0,30.14,ESE,122,0.6,3.7,73,0.00,,,0.00,TxWx,2013-08-11 15:45:00,
2013-08-11 10:51:00,75.3,65.0,30.14,South,190,1.2,2.5,70,0.00,,,0.00,TxWx,2013-08-11 15:51:00,
2013-08-11 10:57:00,75.7,66.0,30.14,SE,145,1.2,5.6,71,0.00,,,0.00,TxWx,2013-08-11 15:57:00,
2013-08-11 11:02:00,76.1,66.0,30.14,NNW,347,1.9,3.7,71,0.00,,,0.00,TxWx,2013-08-11 16:02:00,
2013-08-11 11:07:00,76.7,66.0,30.14,WNW,302,0.6,1.9,70,0.00,,,0.00,TxWx,2013-08-11 16:07:00,
2013-08-11 11:12:00,77.0,66.0,30.14,West,280,1.2,4.3,70,0.00,,,0.00,TxWx,2013-08-11 16:12:00,
2013-08-11 11:18:00,77.6,67.0,30.14,East,100,1.9,3.1,69,0.00,,,0.00,TxWx,2013-08-11 16:18:00,
2013-08-11 11:23:00,78.1,67.0,30.14,WSW,257,1.9,3.1,69,0.00,,,0.00,TxWx,2013-08-11 16:23:00,
2013-08-11 11:29:00,78.7,67.0,30.14,SSW,212,2.5,3.1,68,0.00,,,0.00,TxWx,2013-08-11 16:29:00,
2013-08-11 11:35:00,79.1,68.0,30.14,NE,55,1.2,1.9,70,0.00,,,0.00,TxWx,2013-08-11 16:35:00,
2013-08-11 11:40:00,79.4,67.0,30.13,South,190,1.9,4.3,67,0.00,,,0.00,TxWx,2013-08-11 16:40:00,
2013-08-11 11:46:00,79.6,68.0,30.13,SE,145,1.2,2.5,67,0.00,,,0.00,TxWx,2013-08-11 16:46:00,
2013-08-11 11:51:00,79.9,68.0,30.13,SE,145,1.2,2.5,67,0.00,,,0.00,TxWx,2013-08-11 16:51:00,
2013-08-11 11:57:00,80.0,68.0,30.13,NNE,32,2.5,3.1,66,0.00,,,0.00,TxWx,2013-08-11 16:57:00,
2013-08-11 12:02:00,80.0,68.0,30.13,West,280,3.7,3.7,67,0.00,,,0.00,TxWx,2013-08-11 17:02:00,
2013-08-11 12:07:00,80.6,68.0,30.13,NE,55,1.9,2.5,66,0.00,,,0.00,TxWx,2013-08-11 17:07:00,
2013-08-11 12:12:00,81.0,69.0,30.13,ESE,122,1.2,2.5,66,0.00,,,0.00,TxWx,2013-08-11 17:12:00,
2013-08-11 12:19:00,81.2,69.0,30.13,NNW,347,3.7,4.3,67,0.00,,,0.00,TxWx,2013-08-11 17:19:00,
2013-08-11 12:25:00,81.2,68.0,30.13,West,280,5.0,5.0,64,0.00,,,0.00,TxWx,2013-08-11 17:25:00,
2013-08-11 12:30:00,81.0,68.0,30.13,SW,235,5.0,5.0,66,0.00,,,0.00,TxWx,2013-08-11 17:30:00,
2013-08-11 12:35:00,81.2,69.0,30.13,East,100,1.2,3.7,66,0.00,,,0.00,TxWx,2013-08-11 17:35:00,
2013-08-11 12:43:00,80.9,68.0,30.12,SW,235,1.2,1.9,65,0.00,,,0.00,TxWx,2013-08-11 17:43:00,
2013-08-11 12:49:00,81.0,68.0,30.13,West,280,1.9,5.6,66,0.00,,,0.00,TxWx,2013-08-11 17:49:00,
2013-08-11 12:54:00,80.7,68.0,30.12,SSW,212,2.5,3.1,65,0.00,,,0.00,TxWx,2013-08-11 17:54:00,
2013-08-11 12:59:00,80.7,68.0,30.12,West,280,3.7,6.2,66,0.00,,,0.00,TxWx,2013-08-11 17:59:00,
2013-08-11 13:04:00,80.8,68.0,30.12,SSW,212,0.0,3.1,64,0.00,,,0.00,TxWx,2013-08-11 18:04:00,
2013-08-11 13:10:00,80.8,69.0,30.12,ENE,77,1.9,3.1,66,0.00,,,0.00,TxWx,2013-08-11 18:10:00,
2013-08-11 13:16:00,80.4,68.0,30.11,South,190,1.9,2.5,67,0.00,,,0.00,TxWx,2013-08-11 18:16:00,
2013-08-11 13:21:00,80.4,68.0,30.10,South,190,1.9,2.5,68,0.00,,,0.00,TxWx,2013-08-11 18:21:00,
2013-08-11 13:26:00,80.9,69.0,30.11,East,100,2.5,4.3,67,0.00,,,0.00,TxWx,2013-08-11 18:26:00,
2013-08-11 13:33:00,81.0,68.0,30.10,SW,235,2.5,2.5,65,0.00,,,0.00,TxWx,2013-08-11 18:33:00,
2013-08-11 13:38:00,81.3,68.0,30.11,NNE,32,1.9,3.1,64,0.00,,,0.00,TxWx,2013-08-11 18:38:00,
2013-08-11 13:44:00,81.6,69.0,30.10,ENE,77,1.9,5.0,65,0.00,,,0.00,TxWx,2013-08-11 18:44:00,
2013-08-11 13:51:00,81.6,68.0,30.10,SSW,212,1.2,3.7,63,0.00,,,0.00,TxWx,2013-08-11 18:51:00,
2013-08-11 13:56:00,81.4,67.0,30.10,WSW,257,1.9,3.7,64,0.00,,,0.00,TxWx,2013-08-11 18:56:00,
2013-08-11 14:02:00,81.8,69.0,30.10,ENE,77,1.2,1.9,65,0.00,,,0.00,TxWx,2013-08-11 19:02:00,
2013-08-11 14:08:00,81.4,67.0,30.10,West,280,3.7,5.0,63,0.00,,,0.00,TxWx,2013-08-11 19:08:00,
2013-08-11 14:14:00,81.7,69.0,30.09,North,10,0.6,2.5,64,0.00,,,0.00,TxWx,2013-08-11 19:14:00,
2013-08-11 14:19:00,81.7,68.0,30.09,SE,145,1.2,3.7,63,0.00,,,0.00,TxWx,2013-08-11 19:19:00,
2013-08-11 14:24:00,81.8,69.0,30.09,SW,235,3.1,3.7,64,0.00,,,0.00,TxWx,2013-08-11 19:24:00,
2013-08-11 14:31:00,81.8,68.0,30.09,West,280,1.2,3.1,64,0.00,,,0.00,TxWx,2013-08-11 19:31:00,
2013-08-11 14:36:00,81.5,66.0,30.09,ENE,77,1.2,4.3,62,0.00,,,0.00,TxWx,2013-08-11 19:36:00,
2013-08-11 14:42:00,81.6,67.0,30.09,ESE,122,1.2,3.1,62,0.00,,,0.00,TxWx,2013-08-11 19:42:00,
2013-08-11 14:47:00,81.8,68.0,30.10,WSW,257,1.9,3.7,63,0.00,,,0.00,TxWx,2013-08-11 19:47:00,
2013-08-11 14:53:00,81.8,68.0,30.10,ESE,122,3.1,5.0,63,0.00,,,0.00,TxWx,2013-08-11 19:53:00,
2013-08-11 14:58:00,81.8,69.0,30.09,South,190,1.2,6.2,64,0.00,,,0.00,TxWx,2013-08-11 19:58:00,
2013-08-11 15:04:00,81.8,67.0,30.10,SSW,212,3.1,5.0,61,0.00,,,0.00,TxWx,2013-08-11 20:04:00,
2013-08-11 15:11:00,82.0,67.0,30.10,ESE,122,1.2,5.0,61,0.00,,,0.00,TxWx,2013-08-11 20:11:00,
2013-08-11 15:16:00,81.9,68.0,30.10,West,280,1.2,1.2,63,0.00,,,0.00,TxWx,2013-08-11 20:16:00,
2013-08-11 15:22:00,82.0,69.0,30.09,NW,325,0.6,2.5,64,0.00,,,0.00,TxWx,2013-08-11 20:22:00,
2013-08-11 15:28:00,82.3,68.0,30.09,ESE,122,1.9,2.5,64,0.00,,,0.00,TxWx,2013-08-11 20:28:00,
2013-08-11 15:34:00,82.6,69.0,30.09,South,190,1.2,1.9,64,0.00,,,0.00,TxWx,2013-08-11 20:34:00,
2013-08-11 15:40:00,82.6,69.0,30.09,SSW,212,3.7,5.6,63,0.00,,,0.00,TxWx,2013-08-11 20:40:00,
2013-08-11 15:46:00,82.7,69.0,30.08,SW,235,1.9,3.1,63,0.00,,,0.00,TxWx,2013-08-11 20:46:00,
2013-08-11 15:51:00,82.8,68.0,30.09,NNE,32,1.2,5.0,61,0.00,,,0.00,TxWx,2013-08-11 20:51:00,
2013-08-11 15:56:00,83.0,69.0,30.09,SSW,212,1.2,3.1,63,0.00,,,0.00,TxWx,2013-08-11 20:56:00,
2013-08-11 16:02:00,83.0,69.0,30.09,East,100,1.2,3.7,63,0.00,,,0.00,TxWx,2013-08-11 21:02:00,
2013-08-11 16:08:00,83.1,69.0,30.09,ESE,122,1.2,1.9,62,0.00,,,0.00,TxWx,2013-08-11 21:08:00,
2013-08-11 16:13:00,83.1,69.0,30.09,NNW,347,1.9,5.0,62,0.00,,,0.00,TxWx,2013-08-11 21:13:00,
2013-08-11 16:19:00,83.3,68.0,30.09,SE,145,0.6,2.5,62,0.00,,,0.00,TxWx,2013-08-11 21:19:00,
2013-08-11 16:24:00,83.0,68.0,30.08,NNW,347,1.2,3.7,60,0.00,,,0.00,TxWx,2013-08-11 21:24:00,
2013-08-11 16:30:00,82.9,69.0,30.08,ENE,77,1.9,3.1,63,0.00,,,0.00,TxWx,2013-08-11 21:30:00,
2013-08-11 16:35:00,82.4,67.0,30.08,SSE,167,1.9,2.5,62,0.00,,,0.00,TxWx,2013-08-11 21:35:00,
2013-08-11 16:43:00,82.1,69.0,30.08,South,190,3.1,3.7,65,0.00,,,0.00,TxWx,2013-08-11 21:43:00,
2013-08-11 16:50:00,82.1,69.0,30.08,SW,235,1.9,3.1,66,0.00,,,0.00,TxWx,2013-08-11 21:50:00,
2013-08-11 16:55:00,82.0,69.0,30.08,North,10,0.6,1.2,65,0.00,,,0.00,TxWx,2013-08-11 21:55:00,
2013-08-11 17:02:00,82.0,69.0,30.08,East,100,0.6,1.9,64,0.00,,,0.00,TxWx,2013-08-11 22:02:00,
2013-08-11 17:07:00,82.1,69.0,30.08,ENE,77,0.6,2.5,64,0.00,,,0.00,TxWx,2013-08-11 22:07:00,
2013-08-11 17:13:00,82.4,69.0,30.08,East,100,1.2,2.5,66,0.00,,,0.00,TxWx,2013-08-11 22:13:00,
2013-08-11 17:18:00,82.3,68.0,30.08,WSW,257,1.2,1.9,64,0.00,,,0.00,TxWx,2013-08-11 22:18:00,
2013-08-11 17:24:00,82.5,70.0,30.07,West,280,0.6,1.2,65,0.00,,,0.00,TxWx,2013-08-11 22:24:00,
2013-08-11 17:29:00,82.8,70.0,30.07,East,100,0.6,1.9,64,0.00,,,0.00,TxWx,2013-08-11 22:29:00,
2013-08-11 17:36:00,82.9,68.0,30.07,WNW,302,1.2,2.5,61,0.00,,,0.00,TxWx,2013-08-11 22:36:00,
2013-08-11 17:42:00,83.0,68.0,30.06,South,190,0.6,2.5,61,0.00,,,0.00,TxWx,2013-08-11 22:42:00,
2013-08-11 17:48:00,83.0,68.0,30.06,SSE,167,1.9,3.1,62,0.00,,,0.00,TxWx,2013-08-11 22:48:00,
2013-08-11 17:54:00,82.8,67.0,30.06,SSW,212,1.9,3.1,60,0.00,,,0.00,TxWx,2013-08-11 22:54:00,
2013-08-11 17:59:00,82.7,68.0,30.06,WSW,257,1.2,1.9,61,0.00,,,0.00,TxWx,2013-08-11 22:59:00,
2013-08-11 18:04:00,82.4,68.0,30.06,ESE,122,0.6,1.9,63,0.00,,,0.00,TxWx,2013-08-11 23:04:00,
2013-08-11 18:10:00,82.4,69.0,30.06,South,190,0.6,1.2,65,0.00,,,0.00,TxWx,2013-08-11 23:10:00,
2013-08-11 18:15:00,82.3,68.0,30.06,North,10,1.2,1.9,63,0.00,,,0.00,TxWx,2013-08-11 23:15:00,
2013-08-11 18:20:00,82.1,69.0,30.05,NE,55,0.6,1.9,65,0.00,,,0.00,TxWx,2013-08-11 23:20:00,
2013-08-11 18:27:00,81.9,68.0,30.05,North,10,2.5,2.5,64,0.00,,,0.00,TxWx,2013-08-11 23:27:00,
2013-08-11 18:32:00,81.9,69.0,30.05,SE,145,0.6,1.9,65,0.00,,,0.00,TxWx,2013-08-11 23:32:00,
2013-08-11 18:37:00,81.7,69.0,30.05,WSW,257,1.9,3.1,66,0.00,,,0.00,TxWx,2013-08-11 23:37:00,
2013-08-11 18:43:00,81.6,70.0,30.05,ENE,77,0.6,1.2,67,0.00,,,0.00,TxWx,2013-08-11 23:43:00,
2013-08-11 18:48:00,81.2,69.0,30.05,NNE,32,0.6,1.9,67,0.00,,,0.00,TxWx,2013-08-11 23:48:00,
2013-08-11 18:56:00,80.8,69.0,30.05,WSW,257,1.9,1.9,68,0.00,,,0.00,TxWx,2013-08-11 23:56:00,
2013-08-11 19:01:00,80.6,70.0,30.05,NNW,347,0.0,0.6,69,0.00,,,0.00,TxWx,2013-08-12 00:01:00,
2013-08-11 19:07:00,80.2,69.0,30.05,West,280,0.6,1.2,69,0.00,,,0.00,TxWx,2013-08-12 00:07:00,
2013-08-11 19:13:00,80.1,69.0,30.04,North,10,0.0,0.6,69,0.00,,,0.00,TxWx,2013-08-12 00:13:00,
2013-08-11 19:18:00,80.0,69.0,30.04,ENE,77,0.0,0.6,69,0.00,,,0.00,TxWx,2013-08-12 00:18:00,
2013-08-11 19:23:00,79.8,69.0,30.04,SSE,167,0.6,1.2,70,0.00,,,0.00,TxWx,2013-08-12 00:23:00,
2013-08-11 19:30:00,79.5,70.0,30.04,ENE,77,0.0,0.6,71,0.00,,,0.00,TxWx,2013-08-12 00:30:00,
2013-08-11 19:36:00,79.3,69.0,30.04,NE,55,0.0,0.6,72,0.00,,,0.00,TxWx,2013-08-12 00:36:00,
2013-08-11 19:41:00,79.2,69.0,30.04,NNE,32,0.0,0.6,72,0.00,,,0.00,TxWx,2013-08-12 00:41:00,
2013-08-11 19:47:00,79.1,69.0,30.04,NNE,32,0.0,0.6,72,0.00,,,0.00,TxWx,2013-08-12 00:47:00,
2013-08-11 19:55:00,78.8,69.0,30.04,NE,55,0.0,0.6,72,0.00,,,0.00,TxWx,2013-08-12 00:55:00,
2013-08-11 20:01:00,78.7,69.0,30.04,NNE,32,0.0,0.6,72,0.00,,,0.00,TxWx,2013-08-12 01:01:00,
2013-08-11 20:08:00,78.5,68.0,30.04,NE,55,0.0,0.6,73,0.00,,,0.00,TxWx,2013-08-12 01:08:00,
2013-08-11 20:13:00,78.3,69.0,30.04,NE,55,0.0,0.0,74,0.00,,,0.00,TxWx,2013-08-12 01:13:00,
2013-08-11 20:18:00,78.0,69.0,30.04,ENE,77,0.6,0.6,74,0.00,,,0.00,TxWx,2013-08-12 01:18:00,
2013-08-11 20:24:00,77.8,69.0,30.04,NNE,32,0.0,0.6,74,0.00,,,0.00,TxWx,2013-08-12 01:24:00,
2013-08-11 20:29:00,77.6,69.0,30.04,NE,55,0.0,0.6,74,0.00,,,0.00,TxWx,2013-08-12 01:29:00,
2013-08-11 20:35:00,77.3,69.0,30.04,NNE,32,0.0,0.0,76,0.00,,,0.00,TxWx,2013-08-12 01:35:00,
2013-08-11 20:40:00,77.2,69.0,30.04,NE,55,0.0,0.6,76,0.00,,,0.00,TxWx,2013-08-12 01:40:00,
2013-08-11 20:45:00,76.9,69.0,30.04,NNW,347,0.0,0.6,77,0.00,,,0.00,TxWx,2013-08-12 01:45:00,
2013-08-11 20:51:00,76.8,69.0,30.05,NNE,32,0.0,0.6,78,0.00,,,0.00,TxWx,2013-08-12 01:51:00,
2013-08-11 20:56:00,76.6,69.0,30.05,NNE,32,0.0,0.0,78,0.00,,,0.00,TxWx,2013-08-12 01:56:00,
2013-08-11 21:01:00,76.2,69.0,30.05,NNE,32,0.0,0.0,79,0.00,,,0.00,TxWx,2013-08-12 02:01:00,
2013-08-11 21:07:00,76.1,69.0,30.05,NE,55,0.6,0.6,79,0.00,,,0.00,TxWx,2013-08-12 02:07:00,
2013-08-11 21:12:00,76.0,69.0,30.05,NE,55,0.0,0.0,79,0.00,,,0.00,TxWx,2013-08-12 02:12:00,
2013-08-11 21:18:00,75.9,69.0,30.05,NE,55,0.0,0.0,79,0.00,,,0.00,TxWx,2013-08-12 02:18:00,
2013-08-11 21:24:00,75.7,69.0,30.05,NNE,32,0.0,0.0,80,0.00,,,0.00,TxWx,2013-08-12 02:24:00,
2013-08-11 21:30:00,75.6,69.0,30.05,ENE,77,0.0,0.0,80,0.00,,,0.00,TxWx,2013-08-12 02:30:00,
2013-08-11 21:35:00,75.5,70.0,30.05,NE,55,0.0,0.6,81,0.00,,,0.00,TxWx,2013-08-12 02:35:00,
2013-08-11 21:41:00,75.4,69.0,30.06,NNE,32,0.0,1.2,81,0.00,,,0.00,TxWx,2013-08-12 02:41:00,
2013-08-11 21:46:00,75.3,69.0,30.06,NE,55,0.6,0.6,82,0.00,,,0.00,TxWx,2013-08-12 02:46:00,
2013-08-11 21:53:00,75.1,69.0,30.06,NE,55,0.0,0.0,82,0.00,,,0.00,TxWx,2013-08-12 02:53:00,
2013-08-11 21:58:00,75.0,69.0,30.06,NE,55,0.6,0.6,83,0.00,,,0.00,TxWx,2013-08-12 02:58:00,
2013-08-11 22:06:00,74.8,70.0,30.07,ENE,77,0.6,0.6,84,0.00,,,0.00,TxWx,2013-08-12 03:06:00,
2013-08-11 22:11:00,74.6,70.0,30.06,NE,55,0.0,0.0,84,0.00,,,0.00,TxWx,2013-08-12 03:11:00,
2013-08-11 22:16:00,74.5,70.0,30.07,NE,55,0.0,0.0,84,0.00,,,0.00,TxWx,2013-08-12 03:16:00,
2013-08-11 22:24:00,74.3,69.0,30.07,NE,55,0.0,0.6,85,0.00,,,0.00,TxWx,2013-08-12 03:24:00,
2013-08-11 22:29:00,74.2,69.0,30.07,ENE,77,0.6,0.6,85,0.00,,,0.00,TxWx,2013-08-12 03:29:00,
2013-08-11 22:35:00,74.1,69.0,30.06,NNE,32,0.0,0.0,85,0.00,,,0.00,TxWx,2013-08-12 03:35:00,
2013-08-11 22:40:00,74.0,69.0,30.07,NE,55,0.0,0.0,86,0.00,,,0.00,TxWx,2013-08-12 03:40:00,
2013-08-11 22:51:00,73.8,69.0,30.07,NE,55,0.0,0.0,86,0.00,,,0.00,TxWx,2013-08-12 03:51:00,
2013-08-11 22:56:00,73.7,69.0,30.07,NE,55,0.0,0.0,86,0.00,,,0.00,TxWx,2013-08-12 03:56:00,
2013-08-11 23:01:00,73.6,70.0,30.07,NE,55,0.0,0.0,87,0.00,,,0.00,TxWx,2013-08-12 04:01:00,
2013-08-11 23:03:00,73.6,70.0,30.07,NE,55,0.0,0.0,87,0.00,,,0.00,TxWx,2013-08-12 04:03:00,
2013-08-11 23:04:00,73.6,70.0,30.07,NE,55,0.0,0.0,87,0.00,,,0.00,TxWx,2013-08-12 04:04:00,
2013-08-11 23:08:00,73.5,70.0,30.07,NE,55,0.0,0.0,87,0.00,,,0.00,TxWx,2013-08-12 04:08:00,
2013-08-11 23:11:00,73.5,69.0,30.07,NE,55,0.0,0.0,87,0.00,,,0.00,TxWx,2013-08-12 04:11:00,
2013-08-11 23:12:00,73.4,69.0,30.07,NE,55,0.0,0.0,87,0.00,,,0.00,TxWx,2013-08-12 04:12:00,
2013-08-11 23:17:00,73.2,69.0,30.07,NNE,32,0.0,0.0,88,0.00,,,0.00,TxWx,2013-08-12 04:17:00,
2013-08-11 23:23:00,73.0,69.0,30.07,North,10,0.0,0.6,88,0.00,,,0.00,TxWx,2013-08-12 04:23:00,
2013-08-11 23:28:00,72.9,69.0,30.07,NE,55,0.0,0.6,89,0.00,,,0.00,TxWx,2013-08-12 04:28:00,
2013-08-11 23:34:00,72.8,70.0,30.08,NE,55,0.0,0.0,89,0.00,,,0.00,TxWx,2013-08-12 04:34:00,
2013-08-11 23:39:00,72.7,70.0,30.07,NNE,32,0.0,0.0,89,0.00,,,0.00,TxWx,2013-08-12 04:39:00,
2013-08-11 23:44:00,72.6,70.0,30.07,NE,55,0.0,0.0,90,0.00,,,0.00,TxWx,2013-08-12 04:44:00,
2013-08-11 23:49:00,72.5,70.0,30.07,NE,55,0.0,0.0,90,0.00,,,0.00,TxWx,2013-08-12 04:49:00,
2013-08-11 23:55:00,72.5,70.0,30.07,NE,55,0.0,0.0,90,0.00,,,0.00,TxWx,2013-08-12 04:55:00,